TimeEST,TemperatureF,Dew PointF,Humidity,Sea Level PressureIn,VisibilityMPH,Wind Direction,Wind SpeedMPH,Gust SpeedMPH,PrecipitationIn,Events,Conditions,WindDirDegrees,DateUTC
12:53 AM,28.0,21.9,78,29.88,7.0,Calm,Calm,-,N/A,,Overcast,0,2013-02-24 05:53:00
1:53 AM,28.0,21.9,78,29.89,6.0,West,3.5,-,N/A,,Haze,280,2013-02-24 06:53:00
2:53 AM,27.0,21.0,78,29.90,7.0,West,5.8,-,N/A,,Overcast,260,2013-02-24 07:53:00
3:53 AM,27.0,21.0,78,29.90,6.0,West,11.5,-,N/A,,Haze,270,2013-02-24 08:53:00
4:53 AM,27.0,19.9,75,29.91,6.0,West,6.9,-,N/A,,Haze,280,2013-02-24 09:53:00
5:53 AM,26.1,18.0,71,29.92,8.0,West,4.6,-,N/A,,Overcast,270,2013-02-24 10:53:00
6:51 AM,24.8,17.6,74,29.88,6.0,West,4.6,-,0.00,,Haze,280,2013-02-24 11:51:00
6:53 AM,25.0,18.0,75,29.93,7.0,WNW,4.6,-,0.00,,Overcast,290,2013-02-24 11:53:00
7:34 AM,24.8,17.6,74,29.90,6.0,West,4.6,-,N/A,,Haze,270,2013-02-24 12:34:00
7:53 AM,25.0,18.0,75,29.95,6.0,West,10.4,-,N/A,,Haze,270,2013-02-24 12:53:00
8:11 AM,26.6,17.6,69,29.90,6.0,WNW,8.1,-,N/A,,Haze,290,2013-02-24 13:11:00
8:50 AM,24.8,17.6,74,29.91,2.5,West,9.2,-,0.00,Snow,Light Snow,280,2013-02-24 13:50:00
8:53 AM,26.1,19.0,75,29.96,2.5,West,8.1,-,0.00,Snow,Light Snow,280,2013-02-24 13:53:00
9:03 AM,26.6,19.4,74,29.92,3.0,West,9.2,-,0.00,,Haze,280,2013-02-24 14:03:00
9:53 AM,26.1,19.0,75,29.98,7.0,West,11.5,-,0.00,,Overcast,260,2013-02-24 14:53:00
10:20 AM,26.6,19.4,74,29.93,1.8,West,8.1,-,0.00,Snow,Light Snow,270,2013-02-24 15:20:00
10:32 AM,26.6,19.4,74,29.93,0.5,West,9.2,-,0.00,Snow,Snow,260,2013-02-24 15:32:00
10:43 AM,26.6,19.4,74,29.94,2.0,West,9.2,-,0.00,Snow,Light Snow,270,2013-02-24 15:43:00
10:53 AM,26.1,19.9,78,29.99,4.0,West,10.4,-,0.00,,Haze,280,2013-02-24 15:53:00
11:50 AM,26.6,19.4,74,29.95,1.8,West,8.1,-,0.00,Snow,Light Snow,270,2013-02-24 16:50:00
11:53 AM,26.1,19.9,78,30.00,1.8,West,11.5,-,0.00,Snow,Light Snow,260,2013-02-24 16:53:00
12:03 PM,26.6,19.4,74,29.95,2.0,West,12.7,-,0.00,Snow,Light Snow,260,2013-02-24 17:03:00
12:17 PM,26.6,19.4,74,29.95,1.8,West,11.5,-,0.00,Snow,Light Snow,270,2013-02-24 17:17:00
12:44 PM,28.4,21.2,74,29.95,3.0,West,9.2,-,0.00,Snow,Light Snow,260,2013-02-24 17:44:00
12:53 PM,27.0,19.9,75,30.00,4.0,West,12.7,16.1,0.00,,Haze,280,2013-02-24 17:53:00
1:53 PM,28.0,19.0,69,30.01,8.0,WNW,10.4,17.3,0.00,,Overcast,300,2013-02-24 18:53:00
2:53 PM,28.0,19.0,69,30.03,6.0,West,10.4,17.3,N/A,,Haze,280,2013-02-24 19:53:00
3:53 PM,28.9,19.0,67,30.04,8.0,West,9.2,-,N/A,,Overcast,280,2013-02-24 20:53:00
4:14 PM,28.4,19.4,69,30.00,10.0,West,9.2,-,N/A,,Overcast,280,2013-02-24 21:14:00
4:33 PM,28.4,19.4,69,30.01,10.0,NW,8.1,-,N/A,,Overcast,310,2013-02-24 21:33:00
4:53 PM,28.9,19.0,67,30.06,10.0,West,11.5,-,N/A,,Overcast,280,2013-02-24 21:53:00
5:06 PM,28.4,19.4,69,30.02,10.0,West,8.1,-,N/A,,Overcast,280,2013-02-24 22:06:00
5:17 PM,28.4,19.4,69,30.02,10.0,West,9.2,-,N/A,,Overcast,280,2013-02-24 22:17:00
5:53 PM,28.9,19.9,69,30.08,10.0,Variable,6.9,-,N/A,,Overcast,0,2013-02-24 22:53:00
6:36 PM,28.4,21.2,74,30.05,8.0,West,6.9,-,N/A,,Overcast,280,2013-02-24 23:36:00
6:53 PM,28.0,21.0,75,30.11,8.0,West,4.6,-,N/A,,Overcast,280,2013-02-24 23:53:00
7:08 PM,28.4,21.2,74,30.06,8.0,West,5.8,-,N/A,,Overcast,280,2013-02-25 00:08:00
7:26 PM,28.4,21.2,74,30.07,8.0,West,5.8,-,N/A,,Overcast,260,2013-02-25 00:26:00
7:53 PM,28.0,21.9,78,30.13,8.0,WSW,4.6,-,N/A,,Overcast,250,2013-02-25 00:53:00
8:03 PM,28.4,21.2,74,30.08,8.0,West,4.6,-,N/A,,Overcast,260,2013-02-25 01:03:00
8:53 PM,28.0,21.9,78,30.13,7.0,West,3.5,-,N/A,,Overcast,260,2013-02-25 01:53:00
9:53 PM,28.0,21.9,78,30.14,7.0,Calm,Calm,-,N/A,,Overcast,0,2013-02-25 02:53:00
10:40 PM,28.4,23.0,80,30.08,7.0,West,3.5,-,N/A,,Overcast,260,2013-02-25 03:40:00
10:53 PM,28.0,23.0,81,30.13,6.0,WSW,4.6,-,N/A,,Haze,250,2013-02-25 03:53:00
11:26 PM,26.6,21.2,80,30.08,6.0,West,4.6,-,N/A,,Haze,260,2013-02-25 04:26:00
11:53 PM,26.1,21.9,84,30.14,6.0,West,3.5,-,N/A,,Mostly Cloudy,260,2013-02-25 04:53:00